{"data":{"norad_id":49173,"epoch":"2026-09-20T02:04:04.550592Z","epoch_age_seconds":77024,"freshness":"FRESH","line1":"1 49173U 21082AV  26263.08616378  .00001755  00000+0  63874-4 0  9994","line2":"2 49173  69.9975 142.2717 0003165 277.8482  82.2334 15.30415858275644","mean_motion":15.30415858,"eccentricity":0.0003165,"inclination_deg":69.9975,"raan_deg":142.2717,"arg_perigee_deg":277.8482,"mean_anomaly_deg":82.2334,"bstar":6.3874e-5,"rev_number":27564,"period_min":94.092072587502,"perigee_km":472.40175013025,"apogee_km":476.73951406136,"semimajor_km":6852.7076320958,"source":"CELESTRAK","updated_at":"2026-09-20T09:00:39.253536Z"}}